Regional Weather Roundup
Issued by NWS State College, PA

Home | Current Version | Previous Version | Graphics & Text | Print | Product List | Glossary Off
Versions: 1 2 3 4 5 6 7 8 9 10 11 12 13 14 15 16 17 18 19 20 21 22 23 24 25 26 27 28 29 30 31 32 33 34 35 36 37 38 39 40 41 42 43 44 45 46 47 48 49 50

570
ASUS41 KCTP 260903
RWRCTP

REGIONAL WEATHER ROUNDUP
NATIONAL WEATHER SERVICE STATE COLLEGE PA
400 AM EST SUN FEB 26 2017

Note: "fair" indicates few or no clouds below 12,000 feet with no
significant weather and/or obstructions to visibility.

* = STATION THAT DOES NOT REPORT PRECIPITATION /E.G. RAIN...SNOW...ETC/
    THUNDER OR FOG.

PAZ002>004-007>009-013>016-020>023-029>032-261000-
WESTERN PENNSYLVANIA

CITY           SKY/WX    TMP DP  RH WIND       PRES   REMARKS
ERIE           CLOUDY    28  14  55 W15G25    29.96S
MEADVILLE      LGT SNOW  22  19  89 W8        29.94R VSB 1   WCI  12
FRANKLIN*      CLOUDY    23  14  68 W9        29.95R WCI  13
NEW CASTLE     FLURRIES  26  20  77 W7        30.00R
BEAVER COUNTY  NOT AVBL
BUTLER*        CLOUDY    27  16  63 W8        29.99S
PITTSBURGH INT FLURRIES  26  19  74 W6        29.99S
PITTSBURGH     FLURRIES  27  15  61 W16       29.99R WCI  15
INDIANA*       CLOUDY    27  16  63 NW10G22   29.98S
LATROBE        FLURRIES  27  16  63 W15       30.00R WCI  15
WASHINGTON CO* CLOUDY    27  16  63 W7        30.02S
$$

PAZ004>006-010>012-017>019-024>028-033>037-041-042-045-046-049>053-261000-
CENTRAL PENNSYLVANIA

CITY           SKY/WX    TMP DP  RH WIND       PRES   REMARKS
BRADFORD       LGT SNOW  21  19  92 W10G18    29.84S VSB 1   WCI  10
DUBOIS         CLOUDY    23  14  68 W15G23    29.89R WCI  10
CLEARFIELD       N/A    N/A N/A N/A MISG      29.91R
JOHNSTOWN      LGT SNOW  22  16  78 W16G30    29.87S WCI   8
ALTOONA        CLOUDY    28  15  58 W18G26    29.91S
STATE COLLEGE  CLOUDY    28  13  53 NW15G28   29.91S
WILLIAMSPORT   CLOUDY    33  18  53 W13       29.89R
SELINSGROVE    CLOUDY    33  19  56 W8G20     29.91R
FT INDIANTOWN  CLOUDY    34  16  48 W10G23    29.89R
CAPITAL CITY   CLOUDY    36  16  44 NW20G29   29.92R
HARRISBURG     MOCLDY    35  19  52 NW20G31   29.91R
YORK           CLOUDY    33  19  56 W18G25    29.92R
$$

PAZ038>040-043-044-047-048-054-055-060>062-067>071-261000-
EASTERN PENNSYLVANIA

CITY           SKY/WX    TMP DP  RH WIND       PRES   REMARKS
SCRANTON       CLOUDY    33  22  63 W13       29.83R
MOUNT POCONO   CLOUDY    27  19  72 NW14G31   29.73R
ALLENTOWN      CLEAR     36  19  50 W13       29.84R
QUAKERTOWN*    SUNNY     34  18  51 NW7G17    29.84R
READING        CLOUDY    36  20  52 W20G29    29.87R
LANCASTER      CLOUDY    35  20  54 W22G28    29.89R
COATESVILLE    CLOUDY    34  21  60 NW13G20   29.88R
POTTSTOWN      CLEAR     34  18  52 NW16      29.87R
BLUE BELL      CLEAR     34  21  60 NW10G20   29.85R
DOYLESTOWN     PTCLDY    36  21  54 W17G26    29.83R
WILLOW GROVE   NOT AVBL
NORTH PHILA    CLEAR     38  22  52 W17G26    29.86R
PHILADELPHIA   PTCLDY    39  20  46 W14       29.88R
$$




USA.gov is the U.S. government's official web portal to all federal, state and local government web resources and services.